Location: Lancaster
(34.6980°N, 118.1360°W)
Time: 09:38:49
(UTC-08:00)

N. Korean satellite - Pass Details

Date: 18 November 2017
Orbit: 460 x 515 km, 97.2° (Epoch: 16 November)

Event Time Altitude Azimuth Distance (km) Brightness Sun altitude
Rises 17:19:29 0° 142° (SE) 2,477 10.0 -7.3°
Reaches altitude 10° 17:21:44 10° 129° (SE) 1,612 8.9 -7.8°
Maximum altitude 17:24:37 25° 72° (ENE) 988 7.5 -8.3°
Drops below altitude 10° 17:27:32 10° 16° (NNE) 1,641 8.9 -8.9°
Sets 17:29:50 0° 3° (N) 2,533 10.0 -9.3°
